Regional Weather Roundup
Issued by NWS Jackson, KY

Home | Current Version | Previous Version | Graphics & Text | Print | Product List | Glossary On
Versions: 1 2 3 4 5 6 7 8 9 10 11 12 13 14 15 16 17 18 19 20 21 22 23 24 25 26 27 28 29 30 31 32 33 34 35 36 37 38 39 40 41 42 43 44 45 46 47 48 49 50
018
ASUS43 KJKL 250310
RWRJKL

EAST KENTUCKY HOURLY WEATHER ROUNDUP
NATIONAL WEATHER SERVICE JACKSON KY
1100 PM EDT SUN JUL 24 2016

NOTE: "FAIR" INDICATES FEW OR NO CLOUDS BELOW 12,000 FEET WITH
NO SIGNIFICANT WEATHER AND/OR OBSTRUCTIONS TO VISIBILITY.

* THESE REPORTS ARE NOT UNDER NWS QUALITY CONTROL AND MAY NOT
  REPORT WEATHER SUCH AS PRECIPITATION AND FOG.

KYZ079-080-083-085-087-088-110-112-115-119-120-250400
...EASTERN KENTUCKY...

CITY           SKY/WX    TMP DP  RH WIND       PRES   REMARKS
JACKSON        CLEAR     81  76  84 CALM      30.06R
LONDON         PTCLDY    80  73  79 CALM      30.06R
SOMERSET*      CLEAR     77  75  94 CALM      30.05S
MONTICELLO*    PTCLDY   N/A N/A N/A NW9       30.06S
WILLIAMSBURG*  PTCLDY    77  75  94 CALM      30.06S
MIDDLESBORO*   CLOUDY    78  74  86 CALM      30.07S
HARLAN APT*      N/A     77  72  83 CALM      30.09S
PIKE CO APT*     N/A     81  73  77 CALM      30.07R
BIG SANDY APT* CLEAR     80  76  89 CALM      30.04S
MOREHEAD APT*  PTCLDY    79  73  83 S3        30.04R
ASHLAND*       PTCLDY    79  75  89 CALM      29.98R
$$

KYZ035-036-041-042-044-050-067-078-099-250400
...CENTRAL KENTUCKY...

CITY           SKY/WX    TMP DP  RH WIND       PRES   REMARKS
MT STERLING*   CLEAR     77  73  88 SW3       30.04R
FLEMING/MASON* CLOUDY    78  73  83 S3        30.02S
DANVILLE*      CLOUDY    79  75  89 CALM      30.04S
RICHMOND*      CLOUDY    81  73  78 S5        30.03S
LEXINGTON      CLEAR     80  73  79 SW7       30.02S
FRANKFORT      CLEAR     81  74  79 SW3       30.00R
LOUISVILLE     CLOUDY    86  76  71 SW7       29.98R HX  96
LEBANON*         N/A     81  75  83 S5        30.02S
GLASGOW*       PTCLDY    79  78  99 CALM      30.01S
BOWLING GREEN  CLEAR     85  77  77 S5        30.00R HX  95
$$

KYZ091>093-OHZ055-061-077-WVZ005-015-034-035-042-250400
...SOUTHERN OHIO/WEST VIRGINIA...

CITY           SKY/WX    TMP DP  RH WIND       PRES   REMARKS
COVINGTON      PTCLDY    82  76  81 S7        29.98S
COLUMBUS       MOCLDY    81  73  76 SE3       29.98R
DAYTON         PTCLDY    83  73  72 SW8       29.99R
WILMINGTON     CLEAR     79  74  84 S7        29.99S
HUNTINGTON       N/A     81  76  84 CALM      30.01R
CHARLESTON       N/A     79  74  84 N3        30.02R
PINEVILLE*       N/A     75  71  87 MISG      30.14R
BECKLEY          N/A     76  67  73 SE8       30.14R
BLUEFIELD        N/A     74  65  73 CALM      30.17F
LOGAN CO APT*    N/A     79  75  89 NW3       30.06S
$$

VAZ002-007-008-TNZ017-027-036-066-071-250400
...SOUTHWEST VIRGINIA/EAST TENNESSEE...

CITY           SKY/WX    TMP DP  RH WIND       PRES   REMARKS
WISE*            N/A     72  61  68 S3        30.17S
JONESVILLE*      N/A     77  75  94 CALM      30.10R
ABINGDON*      CLOUDY    77  74  90 CALM      30.14R
BRISTOL        PTCLDY    78  69  73 CALM      30.10R
MORRISTOWN*    CLOUDY    82  72  69 CALM      30.06S
SEVIERVILLE*   CLEAR     79  70  73 CALM      30.05S
KNOXVILLE      PTCLDY    83  73  72 SW3       30.04R
OAK RIDGE      CLOUDY    83  73  72 CALM      30.06R
CROSSVILLE     CLEAR     74  73  97 CALM      30.12R
NASHVILLE      MOCLDY    85  71  63 CALM      30.02R HX  90
$$

...KEY TO REMARKS...
VSB - VISIBILITY IN MILES
WCI - WIND CHILL INDEX
HX  - HEAT INDEX

$$




USA.gov is the U.S. government's official web portal to all federal, state and local government web resources and services.